Weather History for KAPF - June, 2013

Change the Weather History Date:

Thursday, June 6, 2013

  Actual Average Record
Temperature  
Mean Temperature 79 °F 81 °F  
Max Temperature 84 °F 90 °F 98 °F (1985)
Min Temperature 73 °F 73 °F 64 °F (1955)
Degree Days  
Heating Degree Days 0 0  
Month to date heating degree days 0 0  
Since 1 June heating degree days 0 0  
Since 1 July heating degree days 182 260  
Cooling Degree Days 14 16  
Month to date cooling degree days 83 95  
Year to date cooling degree days 1187 1123  
Since 1 June cooling degree days 83 95  
Growing Degree Days 28 (Base 50)    
Moisture  
Dew Point 74 °F    
Average Humidity 87    
Maximum Humidity 94    
Minimum Humidity 79    
Precipitation  
Precipitation 0.42 in 0.21 in 2.40 in (1992)
Month to date precipitation 1.65 1.17  
Year to date precipitation 11.99 13.02  
Snow  
Snow 0.00 in - - ()
Month to date snowfall 0.0  
Since 1 June snowfall 0.0  
Since 1 July snowfall 0.0  
Snow Depth 0.00 in    
Sea Level Pressure  
Sea Level Pressure 29.81 in    
Wind  
Wind Speed 14 mph (South)    
Max Wind Speed 28 mph    
Max Gust Speed 36 mph    
Visibility 6 miles    
Events Fog , Rain , Thunderstorm    
T = Trace of Precipitation, MM = Missing Value Source: NWS Daily Summary

Daily Weather History Graph

Daily Weather History Graph

Search for Another Location

Airport or City:

Trip Planner

Search our weather history database for the weather conditions in past years. The results will help you decide how hot, cold, wet, or windy it might be!

Date:

Astronomy

Jun. 06, 2013 Rise Set
Actual Time 6:34 AM EDT 8:17 PM EDT
Civil Twilight 6:08 AM EDT 8:43 PM EDT
Nautical Twilight 5:37 AM EDT 9:14 PM EDT
Astronomical Twilight 5:04 AM EDT 9:47 PM EDT
Moon 5:05 AM EDT (6/6) 6:45 PM EDT (6/6)
Length of Visible Light 14h 35m
Length of Day
13h 43m
Waning Crescent, 4% of the Moon is Illuminated
Jun 6
Waning Crescent
Jun 8
New
Jun 16
First Quarter
Jun 23
Full
Jun 30
Last Quarter

Hourly Weather History & Observations

Time (EDT) Temp. Heat Index Dew Point Humidity Pressure Visibility Wind Dir Wind Speed Gust Speed Precip Events Conditions
12:53 AM 77.0 °F - 75.0 °F 94% 29.86 in 3.0 mi East 13.8 mph - 0.08 in Rain Rain
1:11 AM 77.0 °F - 75.2 °F 94% 29.85 in 3.0 mi ESE 13.8 mph - 0.06 in Rain Rain
1:22 AM 77.0 °F - 75.2 °F 94% 29.84 in 6.0 mi ESE 16.1 mph 27.6 mph 0.07 in Rain Light Rain
1:30 AM 77.0 °F - 75.2 °F 94% 29.84 in 8.0 mi ESE 16.1 mph 23.0 mph 0.07 in Rain Light Rain
1:38 AM 77.0 °F - 75.2 °F 94% 29.84 in 9.0 mi ESE 16.1 mph 25.3 mph 0.07 in Rain Light Rain
1:53 AM 75.9 °F - 73.0 °F 91% 29.84 in 9.0 mi ESE 13.8 mph - 0.07 in   Partly Cloudy
2:46 AM 75.2 °F - 75.2 °F 100% 29.85 in 2.5 mi SSE 6.9 mph - 0.09 in Rain Heavy Rain
2:51 AM 75.2 °F - 75.2 °F 100% 29.87 in 1.2 mi South 10.4 mph - 0.12 in Rain Heavy Rain
2:53 AM 75.9 °F - 75.0 °F 97% 29.86 in 0.8 mi South 8.1 mph - 0.12 in Rain Heavy Rain
3:00 AM 75.2 °F - 75.2 °F 100% 29.84 in 0.2 mi NW 3.5 mph - 0.00 in Fog , Rain Heavy Rain
3:08 AM 75.2 °F - 73.4 °F 94% 29.84 in 0.8 mi SSE 11.5 mph 19.6 mph N/A Rain Rain
3:13 AM 75.2 °F - 73.4 °F 94% 29.83 in 2.5 mi South 8.1 mph 19.6 mph N/A Rain Rain
3:20 AM 75.2 °F - 73.4 °F 94% 29.83 in 6.0 mi SSE 6.9 mph - N/A Rain Light Rain
3:28 AM 75.2 °F - 73.4 °F 94% 29.83 in 8.0 mi SE 9.2 mph - N/A Rain Light Rain
3:53 AM 75.9 °F - 73.9 °F 94% 29.82 in 6.0 mi SE 6.9 mph - N/A Rain Light Rain
4:53 AM 75.0 °F - 73.9 °F 96% 29.80 in 9.0 mi SE 12.7 mph - N/A Rain Light Rain
5:02 AM 75.2 °F - 73.4 °F 94% 29.80 in 9.0 mi SE 11.5 mph - N/A   Mostly Cloudy
5:53 AM 75.0 °F - 73.0 °F 94% 29.78 in 9.0 mi ESE 10.4 mph - N/A   Partly Cloudy
6:11 AM 75.2 °F - 73.4 °F 94% 29.78 in 9.0 mi ESE 12.7 mph - N/A   Scattered Clouds
6:20 AM 75.2 °F - 73.4 °F 94% 29.78 in 9.0 mi SE 12.7 mph - N/A   Mostly Cloudy
6:42 AM 73.4 °F - 71.6 °F 94% 29.77 in 10.0 mi ESE 11.5 mph - N/A   Mostly Cloudy
6:53 AM 73.9 °F - 72.0 °F 93% 29.77 in 9.0 mi SE 11.5 mph - N/A   Scattered Clouds
7:53 AM 75.9 °F - 73.0 °F 91% 29.78 in 9.0 mi SE 10.4 mph - N/A   Partly Cloudy
8:38 AM 77.0 °F - 75.2 °F 94% 29.81 in 8.0 mi SE 10.4 mph - N/A   Overcast
8:53 AM 77.0 °F - 75.0 °F 94% 29.81 in 7.0 mi SSE 9.2 mph - N/A   Mostly Cloudy
9:53 AM 81.0 °F 87.9 °F 77.0 °F 88% 29.82 in 7.0 mi SSE 13.8 mph - N/A   Overcast
10:53 AM 82.0 °F 90.2 °F 77.0 °F 85% 29.82 in 7.0 mi South 17.3 mph 24.2 mph N/A   Overcast
11:11 AM 82.4 °F 90.9 °F 77.0 °F 84% 29.82 in 7.0 mi South 20.7 mph 27.6 mph N/A   Overcast
11:42 AM 82.4 °F 90.9 °F 77.0 °F 84% 29.81 in 7.0 mi South 19.6 mph 28.8 mph N/A   Overcast
11:53 AM 82.9 °F 91.8 °F 77.0 °F 82% 29.82 in 7.0 mi South 19.6 mph 27.6 mph N/A   Overcast
12:53 PM 84.0 °F 94.8 °F 78.1 °F 82% 29.81 in 7.0 mi South 17.3 mph 26.5 mph N/A   Overcast
1:53 PM 82.9 °F 91.8 °F 77.0 °F 82% 29.80 in 7.0 mi South 18.4 mph 27.6 mph N/A   Overcast
2:31 PM 75.2 °F - 68.0 °F 78% 29.82 in 9.0 mi WSW 21.9 mph 33.4 mph N/A Thunderstorm Overcast
2:38 PM 73.4 °F - 69.8 °F 88% 29.82 in 0.5 mi WSW 15.0 mph 33.4 mph 0.15 in Fog , Rain , Thunderstorm Heavy Thunderstorms and Rain
2:43 PM 73.4 °F - 71.6 °F 94% 29.82 in 0.8 mi WSW 12.7 mph 28.8 mph 0.20 in Rain , Thunderstorm Heavy Thunderstorms and Rain
2:53 PM 73.0 °F - 72.0 °F 96% 29.82 in 2.5 mi WSW 16.1 mph 23.0 mph 0.24 in Rain , Thunderstorm Light Thunderstorms and Rain
2:55 PM 73.4 °F - 71.6 °F 94% 29.82 in 3.0 mi WSW 13.8 mph 23.0 mph 0.00 in Rain , Thunderstorm Light Thunderstorms and Rain
2:57 PM 73.4 °F - 71.6 °F 94% 29.82 in 2.5 mi WSW 18.4 mph 23.0 mph 0.00 in Rain , Thunderstorm Light Thunderstorms and Rain
3:05 PM 73.4 °F - 71.6 °F 94% 29.82 in 7.0 mi WSW 17.3 mph 26.5 mph 0.00 in Rain , Thunderstorm Light Rain
3:11 PM 73.4 °F - 71.6 °F 94% 29.82 in 8.0 mi SW 16.1 mph 25.3 mph 0.00 in   Overcast
3:29 PM 75.2 °F - 73.4 °F 94% 29.81 in 6.0 mi SSW 16.1 mph 24.2 mph 0.00 in Rain Light Rain
3:53 PM 75.0 °F - 71.1 °F 87% 29.79 in 8.0 mi SW 16.1 mph 29.9 mph 0.00 in   Overcast
4:53 PM 75.9 °F - 72.0 °F 87% 29.78 in 7.0 mi SSW 21.9 mph 34.5 mph 0.00 in Rain Light Rain
5:53 PM 77.0 °F - 72.0 °F 84% 29.78 in 8.0 mi SSW 15.0 mph 21.9 mph 0.00 in   Clear
6:36 PM 77.0 °F - 71.6 °F 83% 29.76 in 8.0 mi SSW 21.9 mph 29.9 mph N/A   Overcast
6:53 PM 77.0 °F - 73.0 °F 88% 29.76 in 5.0 mi SW 21.9 mph 32.2 mph 0.01 in Rain Light Rain
7:00 PM 75.2 °F - 73.4 °F 94% 29.77 in 5.0 mi SW 19.6 mph 27.6 mph 0.00 in Rain Light Rain
7:53 PM 77.0 °F - 73.0 °F 88% 29.79 in 10.0 mi SSW 18.4 mph 26.5 mph 0.00 in   Clear
8:53 PM 78.1 °F - 72.0 °F 81% 29.82 in 10.0 mi SSW 17.3 mph - N/A   Clear
9:53 PM 78.1 °F - 72.0 °F 81% 29.83 in 10.0 mi SSW 12.7 mph 21.9 mph N/A   Scattered Clouds
10:53 PM 78.1 °F - 73.9 °F 87% 29.84 in 9.0 mi SW 10.4 mph - N/A   Mostly Cloudy
11:53 PM 78.1 °F - 73.9 °F 87% 29.84 in 10.0 mi SW 11.5 mph - N/A   Mostly Cloudy